This is the latest recevied weather packets stored in our database for station/object KO6LQJ. If no packets are shown the sender has not sent any weather packets the latest 10 day(s).
| Time | Temp. | Humidity | Pressure | Rain* | Wind** | Luminosity | Snow |
|---|---|---|---|---|---|---|---|
| 1777474320 | 15.56° C | 59% | 1019.2 hPa | 0 mm | - | 170 W/m² | - |
| 1777474017 | 15° C | 60% | 1019.3 hPa | 0 mm | - | 160 W/m² | - |
| 1777473715 | 15° C | 60% | 1019.4 hPa | 0 mm | - | 146 W/m² | - |
| 1777473411 | 15° C | 60% | 1019.1 hPa | 0 mm | - | 116 W/m² | - |
| 1777473107 | 15° C | 60% | 1019.1 hPa | 0 mm | - | 64 W/m² | - |
| 1777472804 | 15° C | 59% | 1019.2 hPa | 0 mm | - | 44 W/m² | - |
| 1777472500 | 15° C | 59% | 1019.3 hPa | 0 mm | - | 49 W/m² | - |
| 1777472197 | 14.44° C | 63% | 1019.2 hPa | 0 mm | - | 61 W/m² | - |
| 1777471893 | 14.44° C | 62% | 1019.3 hPa | 0 mm | - | 37 W/m² | - |
| 1777471590 | 13.33° C | 66% | 1019.3 hPa | 0 mm | - | 35 W/m² | - |
| 1777471286 | 12.22° C | 68% | 1019.3 hPa | 0 mm | - | 38 W/m² | - |
| 1777470983 | 11.67° C | 71% | 1019.3 hPa | 0 mm | - | 35 W/m² | - |
| 1777470680 | 10.56° C | 73% | 1019.4 hPa | 0 mm | - | 31 W/m² | - |
| 1777470376 | 10° C | 73% | 1019.4 hPa | 0 mm | - | 17 W/m² | - |
| 1777470073 | 10° C | 73% | 1019.3 hPa | 0 mm | - | 16 W/m² | - |
| 1777469769 | 10° C | 73% | 1019.3 hPa | 0 mm | - | 13 W/m² | - |
| 1777469465 | 10° C | 74% | 1019.2 hPa | 0 mm | - | 10 W/m² | - |
| 1777469164 | 10° C | 74% | 1019.3 hPa | 0 mm | - | 8 W/m² | - |
| 1777468859 | 10° C | 74% | 1019.3 hPa | 0 mm | - | 6 W/m² | - |
| 1777468556 | 10° C | 74% | 1019.5 hPa | 0 mm | - | 3 W/m² | - |
| 1777468253 | 10° C | 74% | 1019.2 hPa | 0 mm | - | 3 W/m² | - |
| 1777467950 | 10° C | 74% | 1019.6 hPa | 0 mm | - | 1 W/m² | - |
| 1777467645 | 10° C | 75% | 1019.4 hPa | 0 mm | - | 0 W/m² | - |
| 1777467340 | 10° C | 74% | 1019.3 hPa | 0 mm | - | 0 W/m² | - |
| 1777467036 | 10.56° C | 74% | 1019.6 hPa | 0 mm | - | 0 W/m² | - |
* Rain latest hour (hover to see other rain measurements)
** Current wind speed in m/s (hover to see current wind gust speed)